Location: Caserta
(41.0670°N, 14.3330°E)
Time: 04:31:20
(UTC+02:00)

STARLINK-1341 - Pass Details

Date: 05 October 2020
Orbit: 549 x 550 km, 53.0° (Epoch: 20 October)

Event Time Altitude Azimuth Distance (km) Brightness Sun altitude
Exits shadow 05:43:11 12° 321° (NW) 1,701 5.8 -16.0°
Maximum altitude 05:45:15 16° 354° (N) 1,475 5.8 -15.6°
Drops below altitude 10° 05:47:53 10° 33° (NNE) 1,826 6.8 -15.1°
Sets 05:50:52 0° 56° (NE) 2,721 8.3 -14.5°
